Regional Weather Roundup
Issued by NWS Portland, ME

Home | Current Version | Previous Version | Text Only | Print | Product List | Glossary On
Versions: 1 2 3 4 5 6 7 8 9 10 11 12 13 14 15 16 17 18 19 20 21 22 23 24 25 26 27 28 29 30 31 32 33 34 35 36 37 38 39 40 41 42 43 44 45 46 47 48 49 50
000
ASUS41 KGYX 290710
RWRGYX
WEATHER ROUNDUP FOR MAINE AND NEW HAMPSHIRE
NATIONAL WEATHER SERVICE GRAY ME
300 AM EDT SUN MAR 29 2015

MEZ002-005-006-010-012-015-018-020-021-024-026-027-029-290800-
MAINE

CITY           SKY/WX    TMP DP  RH WIND       PRES   REMARKS
PORTLAND       PTCLDY    27   6  41 NW8       30.05R
SANFORD        CLEAR     25   9  50 NW3       30.05S
BAR HARBOR     CLOUDY    28   5  37 N9G18     29.99R
WISCASSET      CLEAR     26   4  38 CALM      30.04R
ROCKLAND       PTCLDY    28   7  40 NW6       30.00R
FRYEBURG       CLEAR     16   7  67 CALM      30.03S
LEWISTONAUBURN CLEAR     23   3  42 NW5       30.02R
AUGUSTA        CLEAR     23   2  40 NW9       30.02R
WATERVILLE     CLEAR     25   1  36 NW12      29.99S WCI  14
BANGOR         CLEAR     24   4  42 NW6       30.00R
GREENVILLE       N/A     14   2  58 NW8       29.90S
MILLINOCKET    PTCLDY    17   5  59 CALM      29.98R
HOULTON        CLOUDY    23   5  46 N7        29.92S
PRESQUE ISLE   CLEAR     19   1  45 NW6       29.94R
FRENCHVILLE    CLEAR     13   0  56 NW7       29.90S
CARIBOU        CLEAR     15   2  56 NW9       29.92S
$$

NHZ002-005-008-009-011-012-014-290800-
NEW HAMPSHIRE

CITY           SKY/WX    TMP DP  RH WIND       PRES   REMARKS
PORTSMOUTH     PTCLDY    25   7  47 NW7       30.05R
ROCHESTER      CLEAR     23   6  48 NW6       30.04R
NASHUA         CLEAR     25   5  42 N7        30.09R
MANCHESTER     PTCLDY    24   7  48 N9        30.06R
CONCORD        CLEAR     23   4  44 NW9       30.07R
LACONIA        CLEAR     21   1  42 W5        30.03R
PLYMOUTH       FAIR      22  10  59 W5        30.06R
BERLIN         FAIR      10   4  76 CALM      30.02R
WHITEFIELD     CLEAR     11   5  77 CALM      30.05R
JAFFREY        CLEAR     18   5  57 CALM      30.03S
KEENE          CLEAR     19   7  58 CALM      30.08S
LEBANON        CLEAR     18   7  62 CALM      30.08R
MT WASHINGTON  PTCLDY    -2 -11  65 N22         N/A  WCI -26
$$

VTZ005-007-008-290800-
VERMONT

CITY           SKY/WX    TMP DP  RH WIND       PRES   REMARKS
ST JOHNSBURY     N/A     13   7  77 MISG      30.07S
MONTPELIER     CLEAR     11   2  67 CALM      30.09S
BURLINGTON     CLEAR     16   8  71 CALM      30.13R
$$

MAZ007-012-024-CTZ003-RIZ002-NYZ038-NYZ072-290800-
SOUTHERN NEW ENGLAND AND NY

CITY           SKY/WX    TMP DP  RH WIND       PRES   REMARKS
BOSTON         CLOUDY    27   8  44 NW15      30.08R WCI  15
WORCESTER      CLOUDY    21   5  50 NW7       30.02R
NANTUCKET      FLURRIES  34  29  82 N14       30.02R
PROVIDENCE     CLOUDY    27  17  66 N13       30.08R WCI  16
HARTFORD       MOCLDY    27   9  46 N8        30.10R
ALBANY         CLEAR     19   5  54 CALM      30.16S
NEW YORK CITY  CLOUDY    27  12  53 NW15      30.14S WCI  15
$$

ANZ081-ANZ082-ANZ150-NHZ014-MEZ023>029-290800-
COASTAL MARINE OBSERVATIONS

STATION/POSITION TIME  TEMP    WIND        PRES    WAVE
                       AIR SEA DIR/SP/G            HT/PER
                 (UTC) (F)     (DEG/KT/KT) (MB)    (FT/S)
MOUNT DESERT ROC 0700   31                 1014.3R
MATINICUS ROCK   0700   30     340/ 21/ 24 1015.4R
ISLE OF SHOALS   0700   28     320/ 15/ 17 1017.1R
JEFFREYS LEDGE   0621      40                N/A     7/11
CASHES LEDGE BUO 0650   33 38              1015.2R   7/ 5
$$

.............KEY..............
   WCI - WIND CHILL
   TC  - TEMPERATURE IN CELSIUS
   VSB - VISIBILITY IN MILES
   HX  - HEAT INDEX
   FAIR- INDICATES FEW OR NO CLOUDS BELOW 12,000 FT, WITH NO
         SIGNIFICANT WEATHER AND/OR OBSTRUCTIONS TO VISIBILITY.




USA.gov is the U.S. government's official web portal to all federal, state and local government web resources and services.